Theta_e
318 317 316 315 316 317 315 315 315 315 315 314 314 312 312 312 315 314 313 311 312 312 314 315 315 315 317 315 316 318 317 316 315 315 316 316 314 315 316 315 315 315
318 317 318 316 317 316 316 317 316 316 316 315 313 313 312 313 314 313 312 312 312 311 312 313 313 313 314 315 316 317 315 314 315 318 317 315 315 316 315 314 314 315
317 316 316 315 316 315 315 314 316 316 317 315 314 314 315 313 313 312 311 311 311 310 311 311 312 312 313 312 313 314 315 312 311 311 317 316 315 316 315 315 315 316
317 317 316 315 315 315 315 316 315 316 315 315 314 315 316 315 312 312 314 315 311 310 310 311 311 310 310 309 309 310 309 309 308 309 309 308 311 314 314 314 314 313
316 316 315 314 315 315 315 315 315 314 314 314 314 314 315 312 311 310 310 309 308 308 309 309 309 308 308 308 308 308 308 308 307 307 307 306 307 310 311 313 312 311
316 316 316 315 315 315 314 314 314 314 314 313 314 313 311 311 310 309 309 307 307 307 307 307 307 306 306 306 307 307 307 308 307 307 308 307 306 307 310 310 309 309
317 317 317 315 314 314 314 313 313 314 314 314 312 310 310 310 309 308 308 307 307 308 307 306 305 305 304 305 306 305 305 306 306 307 307 306 307 306 307 306 307 307
318 319 319 316 314 314 314 313 313 313 313 311 310 309 309 309 308 308 307 307 306 306 306 306 306 304 304 304 305 305 306 307 307 306 306 305 305 306 306 307 306 306
319 318 319 316 314 313 313 313 313 312 312 311 310 309 308 308 307 306 307 306 306 306 306 305 305 304 304 304 304 304 305 305 306 305 305 305 305 305 305 304 305 306
318 318 318 316 315 315 314 314 313 313 312 310 309 308 309 308 306 306 306 306 306 306 305 305 305 305 305 304 304 304 305 305 304 304 304 304 305 305 305 304 304 305
317 317 317 316 316 317 315 314 314 314 312 310 308 308 308 307 308 307 306 306 307 306 306 305 305 305 305 304 304 304 304 304 304 304 304 304 305 304 310 303 304 304
315 316 317 316 316 315 314 313 313 314 313 310 309 308 308 308 307 306 307 306 306 306 305 305 305 304 304 304 304 304 304 304 304 304 304 304 305 305 305 303 303 303
317 316 317 316 315 315 316 315 313 313 312 311 311 309 309 310 309 307 308 307 306 305 305 305 305 304 304 304 305 304 304 304 304 304 304 304 304 305 304 303 303 304
315 316 316 316 316 316 316 316 316 316 314 311 311 309 309 309 309 308 307 307 306 305 305 306 305 305 304 304 305 304 304 303 304 304 304 304 305 304 304 304 303 304
315 315 316 316 317 316 316 316 316 316 316 314 311 311 312 310 308 308 307 307 306 306 306 307 307 307 307 305 305 304 303 303 303 304 305 304 304 304 304 304 304 304
314 314 314 315 315 315 314 315 316 315 314 313 314 313 311 311 308 308 307 307 307 305 305 306 307 307 310 307 307 307 304 305 304 304 304 304 304 304 303 303 304 303
314 313 313 312 314 314 313 314 314 314 313 312 313 314 314 312 310 308 307 307 307 306 304 306 307 308 304 301 299 303 307 305 305 304 303 303 303 303 303 304 304 304
312 313 312 312 313 313 312 312 312 312 312 312 312 312 312 313 311 309 308 307 307 306 305 306 306 306 301 300 298 297 301 307 305 305 305 304 304 304 305 304 305 305
300 301 301 302 304 307 309 311 311 310 309 310 310 310 310 311 312 311 309 307 306 306 305 305 305 303 295 294 296 297 297 300 304 305 305 306 305 305 305 306 304 305
298 298 298 298 299 300 300 300 301 303 305 308 308 308 308 309 311 312 312 309 306 305 305 304 304 302 295 295 295 295 295 298 303 304 304 304 306 307 307 306 306 307
297 297 297 297 297 297 297 297 297 298 299 301 302 303 305 306 307 308 309 309 309 307 305 305 307 302 296 294 293 293 293 294 303 305 306 307 307 307 307 306 307 308
296 296 296 296 296 296 296 295 295 295 296 297 298 298 298 299 300 302 303 305 307 306 305 307 308 301 297 294 293 293 293 300 302 303 305 307 308 308 309 309 308 308
296 295 295 295 295 295 295 295 295 295 295 296 295 295 295 296 297 298 300 301 302 304 305 306 308 304 299 295 295 294 295 303 303 303 303 304 307 308 309 310 310 310
295 295 294 294 294 294 294 294 294 294 295 296 294 294 294 294 296 296 296 298 299 301 303 304 306 305 300 299 298 295 296 303 304 303 305 306 307 308 307 308 309 310
296 296 295 294 294 294 294 294 294 294 294 294 294 293 294 293 295 294 295 295 296 298 303 302 302 302 300 298 297 298 298 303 305 305 304 304 305 306 305 306 308 309
297 296 295 294 294 294 294 294 295 294 294 294 294 294 293 293 293 293 293 293 294 295 297 298 299 301 300 296 296 296 296 302 306 305 304 304 304 306 307 304 305 306
Wind_Speed
6 6 7 6 5 6 6 6 4 6 4 4 6 4 5 3 1 2 2 2 2 3 3 3 2 2 3 3 3 3 3 3 2 3 4 5 4 4 4 3 2 3
6 6 5 5 5 3 4 5 5 6 5 3 3 4 2 3 2 2 3 2 3 3 3 3 2 3 3 3 3 4 3 3 3 2 4 4 5 5 4 4 3 4
6 6 6 6 6 4 4 3 5 4 5 4 4 3 4 3 4 2 2 2 4 3 3 3 3 2 3 3 3 3 3 3 3 2 4 5 5 5 5 4 4 5
5 6 6 4 5 6 4 5 4 5 4 5 4 4 4 3 3 3 2 3 4 3 2 2 2 2 3 3 3 2 2 2 2 3 3 3 3 5 5 4 4 3
5 5 4 3 4 4 4 5 6 5 5 5 4 4 5 4 4 3 3 3 3 3 2 2 1 3 3 3 3 3 2 2 1 2 3 3 2 4 4 5 5 5
8 8 5 1 4 5 5 5 5 6 5 4 4 3 4 4 4 3 3 3 3 3 2 1 2 2 3 3 3 3 2 3 1 3 4 4 3 2 4 4 6 6
9 8 3 5 1 4 4 4 4 4 4 4 4 4 4 4 4 3 2 3 3 2 2 1 2 3 3 3 4 3 2 2 2 2 4 2 4 3 2 4 5 6
9 9 7 4 3 1 4 3 4 4 4 4 4 3 4 4 4 3 2 2 3 2 1 0 0 2 2 3 3 3 2 1 3 3 4 3 3 4 2 1 4 6
7 6 7 7 6 3 1 4 4 4 4 5 4 4 2 3 4 3 3 2 2 2 2 0 0 1 1 2 2 3 3 1 1 3 4 4 3 2 2 3 4 5
8 9 8 7 6 5 4 1 0 3 2 4 4 4 4 2 3 3 3 2 1 1 1 1 0 0 0 0 1 3 2 2 1 1 2 2 3 2 2 3 4 5
7 8 7 7 6 4 4 4 1 1 3 3 3 3 2 3 2 2 2 1 1 1 1 1 1 0 1 0 0 0 1 2 1 1 1 1 1 1 2 2 3 5
4 5 6 6 6 5 4 3 2 1 1 3 3 4 2 1 2 1 1 1 1 2 1 2 2 1 2 3 3 2 1 1 1 1 1 1 1 1 2 2 3 3
8 5 6 6 5 4 4 3 3 3 1 0 0 3 3 3 2 2 1 1 2 1 2 3 3 2 2 1 2 3 3 3 2 2 1 1 2 2 2 3 4 4
4 6 6 5 4 3 3 2 3 4 4 2 1 1 3 4 4 4 4 3 3 3 4 2 2 2 1 1 1 2 3 2 3 3 3 2 2 2 2 3 3 4
5 4 5 6 6 5 3 4 5 5 6 6 3 1 2 2 2 3 3 3 3 4 4 2 3 4 3 3 3 2 2 3 3 4 4 4 3 2 2 2 2 1
6 4 5 6 8 8 5 4 6 7 7 6 6 5 3 1 2 2 3 4 4 4 4 3 4 3 4 7 6 4 4 3 2 2 3 4 4 3 3 3 3 3
7 6 5 6 6 5 5 4 6 7 5 5 5 5 6 6 2 2 1 3 4 4 4 4 4 4 7 6 9 7 5 4 4 4 2 2 3 4 4 4 3 2
6 7 8 7 6 5 6 7 6 5 4 3 4 6 6 6 7 5 2 1 1 2 4 5 5 7 8 8 8 9 7 3 4 4 4 4 4 4 4 4 5 4
10 11 11 11 10 9 9 8 6 6 5 6 5 5 4 6 6 6 5 3 1 1 2 2 4 4 5 7 8 9 8 5 3 3 4 5 4 5 5 6 5 5
11 11 11 10 9 10 10 10 9 9 8 6 5 5 5 4 6 7 6 6 4 3 2 2 3 2 4 3 5 6 7 5 4 3 3 4 4 5 5 5 6 6
11 11 10 9 9 9 9 10 9 9 9 8 7 7 7 7 6 6 6 6 5 5 6 6 6 4 4 4 4 3 1 2 3 4 4 5 5 4 4 4 5 6
9 10 10 9 10 10 10 9 8 8 8 6 6 7 7 7 7 6 7 7 6 5 4 5 5 8 8 7 6 4 1 1 1 3 4 5 6 6 6 5 4 4
9 10 10 10 9 10 10 9 8 8 7 6 7 7 7 7 6 5 5 6 7 6 6 6 6 5 4 6 8 5 3 4 3 2 4 4 6 6 6 6 6 6
9 9 9 9 9 10 8 7 7 6 7 7 7 7 7 7 6 6 5 5 6 7 7 6 7 9 10 8 5 6 4 5 4 4 5 5 6 6 4 4 6 9
8 9 9 9 9 8 8 8 8 7 6 6 6 5 5 5 5 6 6 6 6 6 9 8 7 9 12 14 13 6 3 3 4 5 6 6 6 6 4 4 4 7
8 9 9 8 8 7 7 6 5 6 7 7 7 7 7 6 6 6 7 7 7 7 7 7 8 8 9 14 13 13 8 4 3 4 5 8 7 7 7 5 6 6
Wind_Direction
145 141 141 143 154 155 148 141 146 135 134 129 132 155 148 172 156 116 90 89 103 114 134 136 136 121 107 103 111 112 120 142 138 142 128 124 131 146 158 175 187 110
135 124 119 124 125 130 137 143 146 143 142 137 140 134 145 137 135 128 123 92 72 91 116 117 120 121 114 114 122 117 116 126 129 118 129 133 148 153 165 179 146 153
127 124 134 146 145 138 131 130 137 139 136 143 133 134 138 135 122 99 102 107 85 80 97 113 108 109 108 102 102 117 131 131 134 136 146 161 157 159 169 163 154 162
128 135 139 139 132 131 134 124 122 125 125 128 147 153 138 127 116 110 82 80 94 78 85 92 114 99 97 104 104 97 119 120 156 138 128 132 154 148 158 156 145 153
120 105 91 102 111 122 133 135 142 144 146 147 135 133 124 123 113 96 89 71 75 90 84 94 84 96 99 91 97 99 78 94 63 105 115 107 133 149 164 150 149 155
46 43 31 65 140 138 141 148 149 144 140 133 144 124 119 117 114 109 102 95 74 92 95 72 84 68 83 97 84 84 103 99 89 111 109 122 110 115 145 148 149 154
89 85 46 340 281 138 133 139 138 137 133 137 119 125 127 119 114 111 98 99 94 87 116 134 119 94 62 85 93 90 60 101 103 123 114 101 106 90 100 135 143 150
129 139 145 99 360 41 117 121 135 135 141 130 133 147 133 131 124 116 96 91 100 87 67 38 43 87 62 83 104 99 79 38 105 104 97 90 88 111 112 118 131 130
129 126 83 76 78 45 76 144 148 145 144 137 140 140 125 135 142 125 109 92 84 65 49 52 28 39 41 89 105 125 124 65 49 105 123 125 116 125 115 112 107 121
135 113 102 111 121 138 120 35 58 133 131 131 145 140 137 107 93 105 104 88 74 58 52 18 8 34 17 63 154 147 133 117 65 66 83 110 133 136 127 112 126 117
115 118 119 125 142 147 103 94 55 197 136 145 138 145 130 110 93 91 94 114 161 216 165 215 250 199 185 224 234 208 150 141 134 105 112 121 138 162 140 120 128 141
78 101 113 126 126 99 97 111 121 167 156 156 162 156 125 104 133 115 146 197 218 228 221 231 228 204 204 208 204 177 159 145 146 151 154 155 146 199 139 139 129 139
139 139 126 117 113 131 137 130 107 92 71 324 214 160 160 170 174 176 216 184 249 234 240 241 234 200 205 201 201 178 176 170 164 167 160 184 193 225 186 161 153 147
44 65 74 90 108 98 83 88 93 77 61 74 121 196 177 190 192 197 214 186 221 226 238 240 258 226 231 208 199 177 164 178 188 183 183 191 213 243 243 199 179 166
109 102 104 103 92 72 56 43 47 49 50 35 35 358 303 244 229 198 185 208 226 226 242 234 227 228 215 201 179 167 155 176 189 187 180 194 211 237 264 284 272 219
83 76 71 72 71 73 57 36 54 49 39 36 30 14 358 26 154 166 178 198 213 226 223 219 236 243 237 236 220 176 179 170 169 186 192 188 202 229 265 279 277 288
64 62 64 70 76 77 88 74 50 41 38 36 21 15 21 2 52 85 108 195 199 197 209 224 234 240 242 241 252 231 177 173 185 195 174 194 202 211 241 259 280 301
56 56 48 41 50 53 56 58 61 42 32 27 30 19 6 23 22 13 12 351 216 177 197 220 230 238 240 243 240 253 260 227 197 191 196 197 198 203 217 230 250 270
57 61 57 50 46 45 42 50 48 43 15 9 21 24 8 17 2 357 351 343 351 237 248 248 245 253 273 275 256 239 244 271 281 247 213 217 212 209 206 210 215 233
57 58 58 52 48 48 50 51 48 40 34 26 20 19 10 353 1 347 339 333 321 303 286 288 275 252 217 247 281 277 263 241 253 265 273 276 258 236 219 208 208 207
55 57 56 52 49 49 49 47 42 36 35 25 26 28 19 12 8 351 337 332 332 336 336 318 305 308 251 240 239 229 233 236 253 249 250 256 259 266 270 256 224 220
51 53 53 49 50 49 48 42 40 34 33 17 28 28 21 15 13 9 357 346 338 339 336 317 306 324 318 304 289 289 294 239 199 227 237 245 250 247 242 243 249 243
43 49 49 47 46 49 44 39 32 24 22 19 29 26 21 17 9 351 341 343 345 350 350 329 320 324 317 301 307 320 320 300 290 250 228 230 245 247 243 236 227 218
43 44 45 42 43 46 42 37 33 29 24 15 27 16 12 0 349 352 355 356 353 349 345 333 323 322 332 330 298 283 266 282 279 267 266 255 253 244 231 233 239 229
45 47 43 40 38 34 34 34 28 23 10 15 19 20 11 353 359 1 355 359 358 350 345 350 334 334 343 345 347 339 248 248 266 282 283 268 263 267 259 239 246 235
45 48 45 42 39 32 29 34 27 27 21 18 12 12 5 4 2 8 1 354 352 358 356 355 347 340 342 344 344 345 334 267 234 228 245 260 263 263 270 260 243 251